Time,TemperatureF,DewpointF,PressureIn,WindDirection,WindDirectionDegrees,WindSpeedMPH,WindSpeedGustMPH,Humidity,HourlyPrecipIn,Conditions,Clouds,dailyrainin,SoftwareType,DateUTC
2013-05-15 00:14:00,70.3,36.0,29.86,South,188,13.0,-999.0,28,-99.99,,,0.00,weatherlink.com 1.10,2013-05-15 07:14:00,
2013-05-15 00:29:00,69.4,35.0,29.87,SSW,201,4.0,-999.0,28,-99.99,,,0.00,weatherlink.com 1.10,2013-05-15 07:29:00,
2013-05-15 00:45:00,70.9,36.0,29.87,SSW,212,11.0,-999.0,28,-99.99,,,0.00,weatherlink.com 1.10,2013-05-15 07:45:00,
2013-05-15 01:00:00,71.3,37.0,29.86,SW,221,6.0,-999.0,29,-99.99,,,0.00,weatherlink.com 1.10,2013-05-15 08:00:00,
2013-05-15 01:15:00,70.8,39.0,29.85,WSW,243,3.0,-999.0,31,-99.99,,,0.00,weatherlink.com 1.10,2013-05-15 08:15:00,
2013-05-15 01:30:00,70.6,38.0,29.84,SW,235,3.0,-999.0,31,-99.99,,,0.00,weatherlink.com 1.10,2013-05-15 08:30:00,
2013-05-15 01:45:00,70.1,40.0,29.84,SW,217,1.0,-999.0,33,-99.99,,,0.00,weatherlink.com 1.10,2013-05-15 08:45:00,
2013-05-15 02:00:00,69.9,39.0,29.84,SW,219,0.0,-999.0,33,-99.99,,,0.00,weatherlink.com 1.10,2013-05-15 09:00:00,
2013-05-15 02:15:00,69.6,40.0,29.84,SSW,196,0.0,-999.0,34,-99.99,,,0.00,weatherlink.com 1.10,2013-05-15 09:15:00,
2013-05-15 02:30:00,69.1,41.0,29.84,SSW,208,0.0,-999.0,36,-99.99,,,0.00,weatherlink.com 1.10,2013-05-15 09:30:00,
2013-05-15 02:45:00,69.4,41.0,29.84,SW,218,0.0,-999.0,36,-99.99,,,0.00,weatherlink.com 1.10,2013-05-15 09:45:00,
2013-05-15 03:00:00,69.1,42.0,29.84,South,186,1.0,-999.0,37,-99.99,,,0.00,weatherlink.com 1.10,2013-05-15 10:00:00,
2013-05-15 03:15:00,68.4,42.0,29.84,SW,221,7.0,-999.0,38,-99.99,,,0.00,weatherlink.com 1.10,2013-05-15 10:15:00,
2013-05-15 03:30:00,68.8,42.0,29.84,SW,218,3.0,-999.0,38,-99.99,,,0.00,weatherlink.com 1.10,2013-05-15 10:30:00,
2013-05-15 03:46:00,68.3,43.0,29.84,SW,222,2.0,-999.0,40,-99.99,,,0.00,weatherlink.com 1.10,2013-05-15 10:46:00,
2013-05-15 04:01:00,68.1,43.0,29.84,WSW,244,0.0,-999.0,40,-99.99,,,0.00,weatherlink.com 1.10,2013-05-15 11:01:00,
2013-05-15 04:46:00,67.6,42.0,29.85,West,271,1.0,-999.0,39,-99.99,,,0.00,weatherlink.com 1.10,2013-05-15 11:46:00,
2013-05-15 05:01:00,67.3,42.0,29.85,SW,233,0.0,-999.0,40,-99.99,,,0.00,weatherlink.com 1.10,2013-05-15 12:01:00,
2013-05-15 05:16:00,66.6,43.0,29.86,SSW,195,4.0,-999.0,42,-99.99,,,0.00,weatherlink.com 1.10,2013-05-15 12:16:00,
2013-05-15 05:31:00,67.1,43.0,29.86,SSW,200,3.0,-999.0,42,-99.99,,,0.00,weatherlink.com 1.10,2013-05-15 12:31:00,
2013-05-15 05:46:00,66.9,42.0,29.86,South,188,7.0,-999.0,40,-99.99,,,0.00,weatherlink.com 1.10,2013-05-15 12:46:00,
2013-05-15 06:01:00,66.1,41.0,29.86,SW,215,0.0,-999.0,40,-99.99,,,0.00,weatherlink.com 1.10,2013-05-15 13:01:00,
2013-05-15 06:16:00,66.0,41.0,29.87,SSW,197,4.0,-999.0,40,-99.99,,,0.00,weatherlink.com 1.10,2013-05-15 13:16:00,
2013-05-15 06:31:00,66.6,41.0,29.87,SSW,213,0.0,-999.0,39,-99.99,,,0.00,weatherlink.com 1.10,2013-05-15 13:31:00,
2013-05-15 06:46:00,67.4,41.0,29.88,SSW,213,0.0,-999.0,38,-99.99,,,0.00,weatherlink.com 1.10,2013-05-15 13:46:00,
2013-05-15 07:02:00,68.1,41.0,29.88,SSE,167,0.0,-999.0,38,-99.99,,,0.00,weatherlink.com 1.10,2013-05-15 14:02:00,
2013-05-15 07:17:00,69.4,41.0,29.88,WSW,240,9.0,-999.0,36,-99.99,,,0.00,weatherlink.com 1.10,2013-05-15 14:17:00,
2013-05-15 07:32:00,71.1,41.0,29.88,WSW,250,10.0,-999.0,34,-99.99,,,0.00,weatherlink.com 1.10,2013-05-15 14:32:00,
2013-05-15 07:47:00,72.8,41.0,29.88,SSW,205,6.0,-999.0,32,-99.99,,,0.00,weatherlink.com 1.10,2013-05-15 14:47:00,
2013-05-15 08:02:00,74.0,41.0,29.88,SW,229,4.0,-999.0,31,-99.99,,,0.00,weatherlink.com 1.10,2013-05-15 15:02:00,
2013-05-15 08:17:00,76.0,41.0,29.87,SW,215,11.0,-999.0,28,-99.99,,,0.00,weatherlink.com 1.10,2013-05-15 15:17:00,
2013-05-15 08:32:00,77.6,38.0,29.87,SW,234,4.0,-999.0,24,-99.99,,,0.00,weatherlink.com 1.10,2013-05-15 15:32:00,
2013-05-15 08:47:00,79.2,38.0,29.87,SSW,204,2.0,-999.0,23,-99.99,,,0.00,weatherlink.com 1.10,2013-05-15 15:47:00,
2013-05-15 09:02:00,80.1,38.0,29.86,SSW,198,2.0,-999.0,22,-99.99,,,0.00,weatherlink.com 1.10,2013-05-15 16:02:00,
2013-05-15 09:33:00,82.6,39.0,29.86,NW,320,15.0,-999.0,21,-99.99,,,0.00,weatherlink.com 1.10,2013-05-15 16:33:00,
2013-05-15 09:48:00,82.8,38.0,29.85,NW,315,20.0,-999.0,20,-99.99,,,0.00,weatherlink.com 1.10,2013-05-15 16:48:00,
2013-05-15 10:03:00,83.8,39.0,29.86,WNW,292,21.0,-999.0,20,-99.99,,,0.00,weatherlink.com 1.10,2013-05-15 17:03:00,
2013-05-15 10:18:00,83.2,38.0,29.86,NW,312,24.0,-999.0,20,-99.99,,,0.00,weatherlink.com 1.10,2013-05-15 17:18:00,
2013-05-15 10:33:00,83.8,37.0,29.85,NW,309,25.0,-999.0,19,-99.99,,,0.00,weatherlink.com 1.10,2013-05-15 17:33:00,
2013-05-15 10:48:00,83.4,37.0,29.85,WNW,292,18.0,-999.0,19,-99.99,,,0.00,weatherlink.com 1.10,2013-05-15 17:48:00,
2013-05-15 11:03:00,84.3,36.0,29.85,NW,324,22.0,-999.0,18,-99.99,,,0.00,weatherlink.com 1.10,2013-05-15 18:03:00,
2013-05-15 11:18:00,84.7,37.0,29.85,NW,319,20.0,-999.0,18,-99.99,,,0.00,weatherlink.com 1.10,2013-05-15 18:18:00,
2013-05-15 11:33:00,85.5,39.0,29.85,NW,319,21.0,-999.0,19,-99.99,,,0.00,weatherlink.com 1.10,2013-05-15 18:33:00,
2013-05-15 11:48:00,85.9,38.0,29.85,NW,315,24.0,-999.0,18,-99.99,,,0.00,weatherlink.com 1.10,2013-05-15 18:48:00,
2013-05-15 12:03:00,86.7,35.0,29.85,NW,319,22.0,-999.0,16,-99.99,,,0.00,weatherlink.com 1.10,2013-05-15 19:03:00,
2013-05-15 12:19:00,88.0,35.0,29.84,NW,317,18.0,-999.0,15,-99.99,,,0.00,weatherlink.com 1.10,2013-05-15 19:19:00,
2013-05-15 12:49:00,88.4,32.0,29.83,NW,323,24.0,-999.0,13,-99.99,,,0.00,weatherlink.com 1.10,2013-05-15 19:49:00,
2013-05-15 13:19:00,88.6,32.0,29.83,NW,314,19.0,-999.0,13,-99.99,,,0.00,weatherlink.com 1.10,2013-05-15 20:19:00,
2013-05-15 13:34:00,88.6,32.0,29.83,WSW,241,18.0,-999.0,13,-99.99,,,0.00,weatherlink.com 1.10,2013-05-15 20:34:00,
2013-05-15 13:49:00,90.7,29.0,29.82,NW,321,13.0,-999.0,11,-99.99,,,0.00,weatherlink.com 1.10,2013-05-15 20:49:00,
2013-05-15 14:04:00,90.7,29.0,29.81,SW,221,15.0,-999.0,11,-99.99,,,0.00,weatherlink.com 1.10,2013-05-15 21:04:00,
2013-05-15 14:19:00,90.5,27.0,29.81,West,275,16.0,-999.0,10,-99.99,,,0.00,weatherlink.com 1.10,2013-05-15 21:19:00,
2013-05-15 14:34:00,90.5,29.0,29.80,SW,231,6.0,-999.0,11,-99.99,,,0.00,weatherlink.com 1.10,2013-05-15 21:34:00,
2013-05-15 14:50:00,91.6,30.0,29.80,NW,306,14.0,-999.0,11,-99.99,,,0.00,weatherlink.com 1.10,2013-05-15 21:50:00,
2013-05-15 15:20:00,91.2,30.0,29.81,WNW,283,15.0,-999.0,11,-99.99,,,0.00,weatherlink.com 1.10,2013-05-15 22:20:00,
2013-05-15 15:35:00,90.1,29.0,29.80,South,183,2.0,-999.0,11,-99.99,,,0.00,weatherlink.com 1.10,2013-05-15 22:35:00,
2013-05-15 16:05:00,89.7,29.0,29.79,WNW,286,9.0,-999.0,11,-99.99,,,0.00,weatherlink.com 1.10,2013-05-15 23:05:00,
2013-05-15 16:20:00,90.5,31.0,29.80,SW,229,9.0,-999.0,12,-99.99,,,0.00,weatherlink.com 1.10,2013-05-15 23:20:00,
2013-05-15 16:36:00,89.5,28.0,29.80,SSW,211,3.0,-999.0,11,-99.99,,,0.00,weatherlink.com 1.10,2013-05-15 23:36:00,
2013-05-15 17:06:00,88.0,31.0,29.80,WSW,253,15.0,-999.0,13,-99.99,,,0.00,weatherlink.com 1.10,2013-05-16 00:06:00,
2013-05-15 17:21:00,87.8,29.0,29.80,WSW,248,10.0,-999.0,12,-99.99,,,0.00,weatherlink.com 1.10,2013-05-16 00:21:00,
2013-05-15 18:06:00,85.3,31.0,29.80,West,265,14.0,-999.0,14,-99.99,,,0.00,weatherlink.com 1.10,2013-05-16 01:06:00,
2013-05-15 18:21:00,84.7,30.0,29.79,SSW,210,10.0,-999.0,14,-99.99,,,0.00,weatherlink.com 1.10,2013-05-16 01:21:00,
2013-05-15 18:36:00,84.1,30.0,29.79,West,281,13.0,-999.0,14,-99.99,,,0.00,weatherlink.com 1.10,2013-05-16 01:36:00,
2013-05-15 18:51:00,82.2,30.0,29.80,SW,230,7.0,-999.0,15,-99.99,,,0.00,weatherlink.com 1.10,2013-05-16 01:51:00,
2013-05-15 19:06:00,82.0,30.0,29.80,WSW,244,7.0,-999.0,15,-99.99,,,0.00,weatherlink.com 1.10,2013-05-16 02:06:00,
2013-05-15 19:21:00,80.5,32.0,29.79,WSW,237,15.0,-999.0,17,-99.99,,,0.00,weatherlink.com 1.10,2013-05-16 02:21:00,
2013-05-15 19:52:00,78.6,32.0,29.79,WSW,240,16.0,-999.0,18,-99.99,,,0.00,weatherlink.com 1.10,2013-05-16 02:52:00,
2013-05-15 20:07:00,77.9,31.0,29.80,WSW,244,12.0,-999.0,18,-99.99,,,0.00,weatherlink.com 1.10,2013-05-16 03:07:00,
2013-05-15 20:22:00,77.4,31.0,29.79,West,262,12.0,-999.0,18,-99.99,,,0.00,weatherlink.com 1.10,2013-05-16 03:22:00,
2013-05-15 20:37:00,77.2,32.0,29.80,SW,235,17.0,-999.0,19,-99.99,,,0.00,weatherlink.com 1.10,2013-05-16 03:37:00,
2013-05-15 20:52:00,76.8,31.0,29.80,WSW,250,17.0,-999.0,19,-99.99,,,0.00,weatherlink.com 1.10,2013-05-16 03:52:00,
2013-05-15 21:07:00,76.3,31.0,29.80,West,281,14.0,-999.0,19,-99.99,,,0.00,weatherlink.com 1.10,2013-05-16 04:07:00,
2013-05-15 21:22:00,76.1,30.0,29.80,SW,220,11.0,-999.0,18,-99.99,,,0.00,weatherlink.com 1.10,2013-05-16 04:22:00,
2013-05-15 21:37:00,75.8,31.0,29.80,WSW,256,10.0,-999.0,19,-99.99,,,0.00,weatherlink.com 1.10,2013-05-16 04:37:00,
2013-05-15 21:52:00,75.4,30.0,29.81,SSW,205,5.0,-999.0,19,-99.99,,,0.00,weatherlink.com 1.10,2013-05-16 04:52:00,
2013-05-15 22:07:00,74.4,31.0,29.81,WSW,244,9.0,-999.0,20,-99.99,,,0.00,weatherlink.com 1.10,2013-05-16 05:07:00,
2013-05-15 22:22:00,74.4,31.0,29.81,WSW,240,10.0,-999.0,20,-99.99,,,0.00,weatherlink.com 1.10,2013-05-16 05:22:00,
2013-05-15 22:37:00,74.4,29.0,29.81,SSE,161,5.0,-999.0,19,-99.99,,,0.00,weatherlink.com 1.10,2013-05-16 05:37:00,
2013-05-15 22:53:00,74.4,29.0,29.81,SSW,208,3.0,-999.0,19,-99.99,,,0.00,weatherlink.com 1.10,2013-05-16 05:53:00,
2013-05-15 23:08:00,73.2,30.0,29.80,SW,219,9.0,-999.0,20,-99.99,,,0.00,weatherlink.com 1.10,2013-05-16 06:08:00,
2013-05-15 23:23:00,72.3,33.0,29.79,SSW,205,10.0,-999.0,24,-99.99,,,0.00,weatherlink.com 1.10,2013-05-16 06:23:00,
2013-05-15 23:38:00,71.5,29.0,29.80,West,272,0.0,-999.0,21,-99.99,,,0.00,weatherlink.com 1.10,2013-05-16 06:38:00,
2013-05-15 23:53:00,69.4,30.0,29.81,West,265,0.0,-999.0,23,-99.99,,,0.00,weatherlink.com 1.10,2013-05-16 06:53:00,